Retour au catalogue

STARLINK-37716

ActifCommunicationsSSO
NORAD 69213·PAYLOAD·🇺🇸 United States

Lancé May 26, 2026 depuis Vandenberg Space Force Base

Loading…

Prochains Passages (prochaines 24 heures)

TLE

FraisSource: CelesTrak SupGP

Époque: Sep 14, 2026, 20:59 UTC

1 69213C 26115C   26257.87479167  .00043462  00000+0  13488-2 0  2578
2 69213  97.2830 273.9800 0001675  84.9783 278.1892 15.33425591    15

Suivez STARLINK-37716 en temps réel avec AllMySat

Download on the App Store